FLOCK 2K-7 (42862 NORAD) Tracking and Keplerian Element Data

This shows tracking and keplerian element data for the satellite.

Feedback or suggestion? Click here.




ElementValue
Catalog42862
NameFLOCK 2K-7
Epoch Orbit23485
Epoch Day261.88565805
Epoch Year2021
RAAN110.2556
Inclination96.8419
Eccentricity0.0009819
Argument of Perigee88.0732
Mean Anonmoly272.1644
Mean Motion15.47687515
Decay Rate0.00017179
L11 42862U 17042AP 21261.88565805 .00017179 00000-0 33306-3 0 9996
L22 42862 96.8419 110.2556 0009819 88.0732 272.1644 15.47687515234853

Live tracking and technical data element details for FLOCK 2K-7 (NORAD 42862). FLOCK 2K-7 can be tracked NOW for your location showing map with azimuth and elevation plus other details from your city location.

Track the satellite on the map from your city or location and see movement details for azimuth, elevation, latitude, longitude, range, height, and movement on the map or in text.







IsCatalogInMostPopularTable: catalog: 42862, numindb: 541
Update: records affected: 1



GetName: 42862 FLOCK 2K-7

Hit Count: updated at: Fri, 24 Sep 2021 17:39:40 GMT